User: anonymous   Login
Location: Oshawa
(43.9000°N, 78.8670°W)
Time: 02:33:22
(UTC-04:00)
Language:

S-56A Canister/Altair - Orbit

View from above orbital plane
View from above orbital plane
View from above satellite
View from above satellite

Ground track
Ground track

The orbit data is extracted from the following two-line orbital elements,

1    82U 61004B   18168.98014013 +.00000130 +00000-0 +14288-3 0  9991
2    82 038.8577 023.0904 1175372 158.3496 207.1397 12.25956826718157
Epoch (UTC): 17 June 2018 23:31:24
Eccentricity: 0.1175372
inclination: 38.8577°
perigee height: 633 km
apogee height: 2500 km
right ascension of ascending node: 23.0904°
argument of perigee: 158.3496°
revolutions per day: 12.25956826
mean anomaly at epoch: 207.1397°
orbit number at epoch: 71815

The dashed part of the orbit path shows where the satellite is in the earth's shadow,  

DLR